User: anonymous   Login
Location: Unspecified
(0.0000°N, 0.0000°E)
Time: 16:18:36
(UTC+00:00)
Language:

Aussat K3 - Orbit

View from above orbital plane
View from above orbital plane
View from above satellite
View from above satellite

Ground track
Ground track

The orbit data is extracted from the following two-line orbital elements,

1 18350U 87078A   15148.78524054 -.00000282  00000-0  00000+0 0  9993
2 18350 014.0828 026.0794 0003559 260.6219 024.2651 00.98908595100585
Epoch (UTC): 28 May 2015 18:50:44
Eccentricity: 0.0003559
inclination: 14.0828°
perigee height: 36157 km
apogee height: 36188 km
right ascension of ascending node: 26.0794°
argument of perigee: 260.6219°
revolutions per day: 0.98908595
mean anomaly at epoch: 24.2651°
orbit number at epoch: 10058

The dashed part of the orbit path shows where the satellite is in the earth's shadow,  

DLR